Wetbulb
56.63 56.77 56.74 56.58 56.54 56.21 56.31 56.15 56.38 56.85 57.08 57.37 57.73 58.09 58.31 58.73 58.25 51.89 45.40 53.02 54.21 65.02 63.02 54.32 51.65 49.46 49.01 46.69 46.39 42.60 37.93 35.03 36.71 38.28 40.49 43.17 44.50 47.21 51.35 61.37 60.89 62.34 61.90 64.17 68.13
56.33 56.50 56.55 56.54 56.44 56.36 56.02 55.80 56.24 56.44 56.87 57.34 57.48 57.80 58.12 58.27 50.24 47.26 56.56 62.37 63.74 66.19 51.38 48.25 46.03 47.76 45.51 44.30 43.56 41.17 35.91 38.40 41.63 41.22 41.32 42.98 42.75 45.38 46.85 55.28 59.18 63.58 64.69 66.84 69.14
55.89 55.98 56.17 56.23 56.52 56.24 55.61 55.59 55.89 56.28 56.81 57.21 57.40 57.64 57.72 56.01 47.74 52.85 65.45 64.08 64.98 64.21 51.35 49.89 48.69 46.73 46.27 42.97 42.10 38.24 38.88 40.97 43.38 44.52 43.57 43.30 44.69 45.89 45.35 48.36 56.84 60.18 62.20 65.45 66.84
55.64 55.68 55.82 55.93 56.29 56.07 55.83 55.62 55.73 56.30 56.71 57.09 57.27 57.48 57.55 52.62 44.49 53.02 68.94 65.87 66.38 57.13 51.34 47.68 47.18 43.94 42.70 42.28 41.05 41.45 42.35 42.61 44.64 44.68 43.60 43.57 44.83 44.73 45.54 47.78 56.17 63.04 63.78 65.31 65.45
55.18 55.21 55.34 55.48 55.84 56.19 56.08 55.81 55.74 56.19 56.54 56.68 57.06 57.16 53.12 44.47 46.53 60.90 69.39 67.76 58.44 53.62 50.07 46.42 44.75 42.10 41.59 39.55 40.67 39.09 42.16 44.06 46.34 46.17 44.34 44.28 44.25 44.09 45.17 52.81 62.89 65.11 64.34 64.44 64.95
55.16 54.98 54.82 55.21 55.61 55.97 56.58 56.11 55.83 55.83 56.06 56.28 56.85 56.99 48.29 39.48 52.03 60.69 60.48 55.88 52.62 49.55 47.78 48.13 46.93 46.01 42.39 40.79 41.25 44.02 43.42 46.17 46.26 45.70 43.56 42.88 44.99 43.94 47.09 60.09 62.72 64.57 63.75 64.61 64.97
54.73 54.50 54.67 55.01 55.16 55.87 56.14 55.77 55.06 55.53 56.25 56.60 57.09 56.40 48.42 43.70 54.52 57.55 54.46 51.98 52.39 51.01 48.32 48.76 49.55 47.23 45.52 42.98 45.61 45.43 42.67 44.67 44.45 44.74 44.55 44.42 45.84 44.41 48.16 59.83 60.13 62.90 63.99 64.80 65.00
54.38 54.11 54.36 54.67 54.93 55.36 55.44 55.57 56.29 56.83 56.88 57.38 57.82 53.41 42.85 49.61 55.32 54.16 51.97 51.50 51.48 50.62 50.25 50.92 50.58 46.46 43.99 45.09 45.82 42.38 40.81 38.18 42.98 46.28 45.87 46.01 41.60 46.36 49.49 54.67 54.52 58.89 63.11 61.23 64.55
54.12 53.72 53.90 53.99 54.34 54.71 54.74 54.88 58.10 57.97 57.55 58.17 51.41 48.25 45.11 56.41 53.49 54.97 52.57 51.49 52.07 51.15 51.52 54.31 49.02 45.14 45.58 41.00 38.61 38.93 36.37 37.48 42.05 44.93 45.58 44.98 42.36 47.15 50.03 48.30 48.55 48.82 58.78 61.35 61.13
53.67 53.22 53.20 53.74 53.87 54.35 54.25 55.56 58.48 57.11 56.84 57.27 55.73 44.71 48.19 50.48 54.57 53.93 53.56 53.76 51.55 50.55 49.52 47.65 44.13 41.48 39.66 39.01 33.27 34.79 35.79 37.49 38.41 42.88 44.86 41.00 42.96 45.36 50.49 50.85 50.60 51.32 49.75 57.60 58.97
53.56 53.12 52.95 53.41 53.78 53.65 52.57 51.32 45.42 45.12 49.60 47.88 45.86 46.01 50.71 55.28 55.85 52.44 54.14 53.14 52.23 49.36 43.67 44.14 41.25 38.19 40.41 41.42 41.46 40.57 39.18 38.38 42.23 45.10 42.49 41.26 41.25 46.97 49.79 50.72 50.50 51.09 53.15 56.06 54.98
53.06 52.98 53.10 53.03 53.28 53.34 48.57 48.22 48.47 47.56 44.01 49.47 50.24 49.01 51.99 54.11 50.23 51.95 54.72 50.25 47.77 44.08 44.16 42.94 39.49 44.19 44.16 43.72 42.54 40.88 38.44 39.24 42.43 44.66 43.30 41.92 41.29 47.47 49.15 49.73 50.71 51.42 54.30 56.59 57.44
52.06 52.37 52.74 52.97 53.10 49.68 47.91 49.67 49.57 47.88 42.32 45.70 49.99 49.93 50.45 52.08 49.23 50.80 53.10 49.78 46.24 43.68 42.98 40.98 44.21 46.80 45.40 42.85 42.15 40.01 38.73 39.71 40.98 43.45 42.94 41.41 39.53 42.88 47.82 50.44 51.29 52.29 52.77 57.71 59.44
51.47 51.89 52.20 52.02 48.79 46.71 48.38 50.26 48.14 49.52 37.41 41.49 46.84 50.21 51.53 51.77 48.62 54.41 53.92 50.35 45.10 44.50 43.30 42.10 45.60 45.82 43.29 42.97 43.36 37.76 43.66 43.75 42.30 39.37 36.24 40.79 33.56 37.25 44.99 46.95 48.95 50.16 51.94 52.61 54.87
51.20 51.83 52.06 52.01 44.11 47.11 49.47 47.71 48.34 50.98 28.84 47.78 48.24 53.42 51.66 48.78 49.26 50.23 51.73 48.85 44.90 44.66 44.04 42.09 42.85 42.51 41.10 43.55 44.60 41.97 44.90 42.72 42.16 38.19 35.69 36.78 34.13 35.73 44.79 44.60 47.17 49.38 52.00 52.64 53.71
51.01 51.45 51.80 48.64 44.54 47.80 48.58 47.97 50.79 39.90 29.95 46.31 49.07 48.16 47.14 48.54 49.36 49.32 49.32 50.17 48.38 44.42 43.52 43.47 45.43 44.93 44.44 45.91 45.78 46.56 42.40 40.83 37.49 35.29 31.28 34.93 34.85 34.26 41.44 44.25 46.99 49.06 50.83 51.96 52.49
50.70 51.12 49.61 49.82 45.35 47.80 47.99 49.48 37.60 33.90 46.20 44.04 44.76 47.89 46.99 46.79 47.92 48.34 46.26 44.43 42.07 37.75 37.53 41.48 42.91 44.81 47.05 42.18 44.70 42.64 37.95 32.26 30.70 30.03 30.65 37.80 35.48 36.71 45.59 47.52 48.32 48.06 49.75 51.15 51.42
49.57 49.32 48.94 52.24 50.27 49.32 48.35 43.10 32.56 39.94 44.12 47.01 46.29 45.87 44.65 45.03 44.26 45.42 44.69 41.29 44.01 41.71 37.15 36.83 36.29 43.20 47.13 44.64 42.08 40.60 39.50 33.37 28.56 28.26 31.37 37.66 33.47 37.51 47.53 48.84 48.96 49.70 49.29 50.34 50.33
48.05 45.07 48.33 50.98 50.04 46.64 42.42 34.77 33.37 41.79 45.07 44.37 44.28 40.72 40.21 43.94 43.00 42.82 40.31 40.65 42.89 43.42 39.29 35.72 37.41 45.28 47.45 46.98 45.74 40.65 36.76 38.60 34.48 33.61 32.28 33.83 38.64 43.75 47.99 48.26 49.28 48.80 48.97 48.50 49.30
40.46 42.71 47.78 51.11 48.08 45.88 39.43 34.81 38.34 47.00 45.87 45.00 38.60 41.51 37.03 39.75 39.90 38.94 39.13 43.79 43.98 45.29 43.21 39.99 35.40 44.04 45.53 45.83 44.80 42.00 43.39 36.53 34.22 27.47 24.29 30.68 33.79 35.98 44.09 45.08 47.37 47.98 47.69 48.41 49.60
40.64 43.12 48.58 50.09 47.19 41.54 34.10 35.07 42.28 47.83 46.45 43.15 40.20 39.04 39.22 38.63 39.13 37.68 38.97 42.49 44.33 43.47 44.11 40.65 38.62 38.96 42.34 39.82 38.90 39.81 37.92 36.85 36.63 33.62 29.19 27.34 31.59 40.76 42.91 45.26 46.46 48.13 48.86 48.57 49.05
38.36 38.69 47.26 47.71 41.05 36.38 35.81 39.06 43.80 44.89 45.91 44.37 43.30 41.32 39.30 39.96 38.28 38.90 39.50 42.30 44.98 44.19 39.60 40.24 37.00 34.23 38.50 40.53 41.14 38.11 37.36 37.09 31.31 29.82 30.83 30.06 30.65 41.32 43.17 45.14 46.83 47.22 48.95 49.22 49.56
37.67 37.52 46.56 44.55 33.96 32.65 36.83 39.85 42.74 42.37 42.11 42.38 40.96 42.37 41.82 38.37 35.14 39.01 40.94 45.41 45.66 43.21 39.73 38.82 33.21 29.03 32.79 36.16 39.22 37.88 39.90 36.36 33.88 32.69 30.22 28.07 30.38 40.80 43.67 43.81 45.96 45.75 47.69 49.18 49.47
37.92 34.54 37.99 38.44 36.20 33.55 33.34 34.43 37.81 43.48 42.24 40.48 40.17 40.68 38.37 36.84 38.43 36.96 39.50 44.44 45.33 45.78 52.46 45.13 33.68 32.60 29.29 33.15 36.15 35.38 38.78 38.08 35.56 30.39 30.90 31.41 33.77 38.05 42.67 42.79 43.85 45.71 47.90 48.37 49.15
35.47 32.46 34.22 29.75 32.68 32.59 32.12 33.99 34.93 34.44 38.60 39.15 37.12 36.34 34.82 31.55 34.37 35.72 37.38 38.84 43.08 44.93 41.29 38.04 33.05 33.66 35.09 38.02 38.12 38.03 38.54 38.20 35.76 35.47 33.35 34.70 35.50 38.41 41.63 44.71 45.14 46.32 47.40 47.46 47.63
31.25 30.82 33.34 30.44 32.33 31.69 32.28 31.22 33.47 34.07 34.88 34.57 33.12 35.19 35.38 31.06 32.12 30.65 33.62 33.86 35.26 39.13 36.53 36.05 31.43 32.71 32.77 37.60 37.99 36.20 37.48 39.48 39.06 37.84 36.58 36.15 34.87 41.56 43.33 42.75 44.73 46.00 47.25 47.18 47.20
33.70 34.13 33.70 31.01 31.02 29.09 29.73 33.15 33.68 34.35 35.45 37.34 35.12 34.04 33.35 35.07 36.19 36.05 36.53 36.81 37.21 34.63 34.02 33.89 30.45 29.11 27.70 35.36 35.08 31.17 35.59 36.17 37.30 38.76 38.57 34.27 38.95 38.97 39.94 40.10 41.12 44.97 47.08 47.24 47.32
MSLP
1017.15 1016.83 1016.53 1016.24 1016.04 1015.83 1015.66 1015.52 1015.40 1015.26 1015.07 1014.92 1014.87 1014.81 1014.76 1014.71 1014.48 1014.50 1013.67 1011.25 1011.24 1011.16 1011.40 1011.71 1011.82 1011.99 1012.16 1012.66 1013.00 1013.69 1014.81 1015.24 1014.06 1013.26 1012.56 1011.75 1011.31 1010.02 1009.43 1009.48 1009.51 1009.84 1010.24 1010.60 1011.66
1017.14 1016.77 1016.42 1016.08 1015.84 1015.65 1015.51 1015.42 1015.27 1015.13 1015.03 1014.86 1014.75 1014.71 1014.72 1014.67 1014.42 1013.34 1010.75 1010.65 1010.95 1011.14 1011.35 1011.67 1012.07 1012.13 1012.76 1012.95 1013.35 1013.93 1014.95 1014.55 1013.24 1012.55 1012.08 1011.68 1011.33 1010.63 1009.87 1009.73 1009.71 1009.98 1010.40 1011.09 1011.66
1017.15 1016.70 1016.33 1015.99 1015.70 1015.52 1015.35 1015.21 1015.14 1015.04 1014.89 1014.78 1014.69 1014.63 1014.62 1014.61 1014.02 1011.10 1009.97 1010.47 1010.96 1011.17 1011.27 1011.56 1011.91 1012.14 1012.78 1012.98 1013.30 1013.77 1013.99 1013.65 1012.67 1012.22 1011.88 1011.32 1010.92 1010.36 1010.06 1010.06 1009.62 1009.99 1010.77 1011.34 1011.77
1017.25 1016.75 1016.31 1015.93 1015.57 1015.32 1015.15 1015.03 1014.90 1014.76 1014.67 1014.65 1014.60 1014.50 1014.42 1014.40 1012.75 1010.29 1010.01 1010.50 1011.00 1011.27 1011.50 1011.83 1012.06 1012.58 1013.01 1013.15 1013.13 1013.42 1013.07 1013.04 1012.24 1011.77 1011.59 1011.18 1010.68 1010.44 1010.12 1009.41 1009.01 1009.54 1010.24 1011.09 1011.67
1017.32 1016.77 1016.28 1015.80 1015.43 1015.12 1014.92 1014.80 1014.63 1014.49 1014.43 1014.44 1014.42 1014.35 1014.36 1013.47 1011.36 1010.14 1009.95 1010.56 1011.21 1011.62 1011.84 1012.09 1012.33 1012.70 1012.96 1013.06 1013.02 1013.12 1012.78 1012.52 1011.80 1011.58 1011.39 1011.03 1010.53 1010.51 1009.95 1009.30 1009.43 1009.89 1010.64 1011.04 1011.43
1017.35 1016.76 1016.20 1015.69 1015.29 1014.95 1014.67 1014.50 1014.38 1014.24 1014.21 1014.24 1014.24 1014.24 1013.92 1012.37 1010.22 1010.24 1010.41 1010.86 1011.25 1011.66 1012.02 1011.96 1012.17 1012.38 1012.73 1012.83 1012.91 1012.72 1012.59 1012.28 1011.73 1011.39 1011.05 1010.93 1010.50 1010.06 1009.62 1009.64 1009.98 1010.19 1010.51 1010.75 1010.98
1017.44 1016.80 1016.17 1015.60 1015.17 1014.77 1014.44 1014.18 1014.05 1013.97 1013.98 1014.08 1014.13 1014.08 1013.30 1011.16 1010.29 1010.43 1010.57 1010.82 1011.16 1011.33 1011.85 1011.84 1011.93 1012.22 1012.49 1012.71 1012.61 1012.66 1012.80 1012.24 1011.79 1011.45 1011.13 1010.94 1010.85 1010.82 1010.35 1010.37 1010.56 1010.77 1010.67 1010.69 1010.88
1017.39 1016.73 1016.10 1015.49 1015.00 1014.60 1014.30 1014.02 1013.79 1013.82 1013.94 1014.02 1014.09 1013.92 1012.28 1010.31 1010.26 1010.52 1010.57 1010.93 1011.17 1011.25 1011.36 1011.44 1011.74 1012.17 1012.47 1012.73 1012.97 1013.16 1013.18 1013.17 1012.32 1011.67 1011.40 1011.27 1011.50 1011.02 1011.20 1011.09 1011.16 1011.24 1011.55 1011.36 1011.18
1017.32 1016.64 1015.94 1015.36 1014.85 1014.47 1014.25 1014.04 1013.85 1013.88 1013.97 1014.04 1014.06 1013.42 1011.53 1010.41 1010.36 1010.01 1010.31 1010.64 1011.05 1011.34 1011.32 1011.48 1011.74 1012.58 1012.93 1013.55 1014.17 1014.42 1014.17 1013.76 1012.96 1012.16 1011.93 1011.92 1012.01 1011.80 1012.15 1012.03 1012.28 1012.15 1011.91 1011.51 1011.22
1017.17 1016.46 1015.74 1015.10 1014.65 1014.29 1014.05 1014.05 1014.04 1014.07 1014.16 1014.03 1013.52 1013.16 1011.02 1009.95 1009.56 1009.79 1010.25 1010.40 1010.71 1011.25 1011.62 1011.84 1012.68 1013.27 1014.04 1014.27 1015.05 1014.93 1014.62 1014.09 1013.60 1012.79 1012.39 1012.47 1012.47 1012.95 1013.48 1013.62 1013.62 1013.18 1012.51 1012.08 1011.85
1016.91 1016.20 1015.48 1014.82 1014.38 1014.13 1014.17 1014.31 1014.44 1014.18 1013.72 1012.52 1011.92 1011.42 1010.29 1009.39 1009.14 1009.67 1009.87 1010.39 1010.63 1011.20 1011.90 1012.42 1013.27 1013.73 1013.88 1014.09 1014.31 1014.52 1014.57 1014.44 1013.44 1012.70 1012.86 1012.90 1013.53 1014.49 1014.42 1013.86 1014.41 1014.37 1013.70 1013.05 1012.81
1016.58 1015.71 1015.09 1014.52 1014.00 1013.61 1013.87 1013.65 1013.23 1013.08 1012.51 1011.11 1010.83 1010.49 1009.80 1009.41 1009.53 1009.54 1009.59 1010.38 1010.90 1011.61 1012.08 1012.86 1013.09 1012.98 1013.28 1013.74 1014.11 1014.35 1014.45 1014.13 1013.40 1012.73 1013.12 1013.07 1013.92 1014.99 1015.45 1015.96 1016.20 1016.00 1015.17 1014.54 1013.94
1016.42 1015.45 1014.70 1014.15 1013.77 1013.84 1013.35 1012.72 1012.35 1012.37 1012.39 1010.47 1010.04 1009.61 1009.26 1009.43 1009.48 1009.14 1009.54 1010.18 1010.90 1011.78 1012.31 1012.82 1012.55 1012.37 1012.87 1013.36 1013.80 1014.06 1014.14 1013.81 1013.78 1013.26 1013.18 1013.57 1014.49 1015.43 1016.09 1016.85 1016.88 1016.53 1016.33 1015.62 1015.21
1016.14 1015.24 1014.43 1013.81 1013.92 1013.40 1012.86 1012.28 1011.98 1011.81 1012.30 1010.17 1009.25 1008.27 1008.51 1008.65 1008.80 1008.35 1008.72 1009.60 1010.81 1011.29 1012.38 1012.63 1011.98 1012.10 1012.39 1012.80 1013.18 1013.41 1012.98 1013.17 1013.64 1014.18 1014.30 1014.33 1015.52 1016.02 1016.78 1017.22 1017.83 1017.67 1017.26 1016.96 1016.61
1015.74 1014.99 1014.24 1013.89 1013.63 1013.16 1012.75 1012.08 1011.66 1011.69 1011.75 1009.11 1008.21 1007.50 1007.95 1008.21 1007.97 1008.21 1008.26 1008.97 1010.06 1010.96 1011.90 1011.78 1011.59 1011.69 1011.93 1011.88 1012.24 1012.56 1012.31 1013.17 1013.57 1014.39 1015.02 1015.47 1016.39 1016.55 1017.39 1017.79 1018.35 1018.60 1018.38 1018.16 1017.87
1015.49 1014.74 1014.25 1013.90 1013.74 1012.79 1012.31 1012.02 1011.90 1012.51 1010.72 1008.70 1007.80 1007.72 1008.28 1008.07 1007.74 1008.05 1008.41 1008.81 1009.69 1010.85 1011.33 1011.30 1011.01 1010.95 1010.82 1010.87 1011.51 1011.94 1012.74 1013.77 1014.71 1015.45 1016.17 1016.17 1016.99 1017.78 1018.00 1018.52 1018.80 1019.15 1019.10 1018.98 1018.69
1015.23 1014.57 1014.06 1013.97 1013.64 1012.74 1012.42 1012.52 1013.33 1012.44 1010.46 1009.58 1008.73 1008.35 1008.23 1008.24 1008.11 1008.16 1008.74 1009.41 1010.12 1011.09 1011.73 1011.31 1010.95 1010.51 1010.46 1011.03 1011.62 1012.44 1013.83 1015.18 1016.23 1016.81 1017.14 1016.99 1017.73 1017.54 1017.87 1018.44 1019.04 1019.38 1019.60 1019.58 1019.35
1015.00 1014.37 1013.93 1013.36 1013.09 1012.83 1012.82 1013.67 1013.91 1012.58 1011.43 1010.28 1009.61 1008.96 1008.86 1008.89 1008.98 1008.89 1009.13 1009.70 1010.01 1010.58 1011.72 1011.75 1011.18 1010.40 1010.22 1010.60 1011.45 1012.60 1013.83 1015.52 1016.76 1017.96 1017.96 1017.63 1017.80 1017.79 1018.14 1018.65 1019.19 1019.57 1019.80 1019.88 1019.66
1015.05 1014.54 1014.25 1013.42 1012.95 1012.86 1013.79 1014.63 1013.98 1013.40 1012.62 1011.48 1010.49 1010.03 1009.73 1009.57 1009.52 1009.51 1009.72 1009.87 1010.03 1010.36 1011.22 1011.54 1011.04 1010.25 1010.22 1010.48 1011.29 1013.04 1014.28 1015.35 1017.12 1018.75 1019.01 1018.28 1018.25 1018.29 1018.54 1018.90 1019.24 1019.70 1019.86 1019.93 1019.72
1017.12 1016.15 1014.79 1013.57 1013.18 1013.52 1014.67 1015.10 1014.39 1013.59 1012.98 1012.09 1011.74 1011.19 1010.92 1010.65 1010.50 1010.38 1010.27 1010.00 1010.11 1010.27 1010.57 1011.23 1011.43 1010.90 1010.98 1011.02 1012.16 1012.67 1014.31 1016.00 1017.64 1019.15 1019.88 1018.98 1018.74 1018.09 1018.37 1018.57 1018.99 1019.37 1019.67 1019.72 1019.58
1017.47 1016.53 1014.69 1013.71 1013.53 1014.92 1016.20 1016.11 1015.09 1014.02 1013.64 1013.16 1012.53 1012.12 1011.82 1011.70 1011.52 1011.41 1010.95 1010.63 1010.39 1010.47 1010.60 1011.36 1012.06 1012.08 1011.83 1011.90 1012.44 1013.79 1014.88 1016.50 1017.75 1018.80 1019.41 1019.19 1018.26 1016.27 1016.50 1017.30 1018.03 1018.47 1019.01 1019.36 1019.40
1019.37 1018.06 1015.34 1014.07 1015.47 1017.43 1017.78 1017.28 1016.23 1015.13 1014.43 1014.02 1013.59 1013.29 1012.97 1012.64 1012.38 1012.10 1011.49 1010.86 1010.67 1010.67 1011.25 1011.99 1012.80 1013.07 1012.70 1012.61 1012.81 1013.26 1014.29 1015.64 1017.75 1019.16 1019.50 1019.19 1017.05 1016.00 1016.23 1016.65 1017.26 1017.75 1018.33 1018.88 1019.21
1021.59 1019.91 1016.46 1015.88 1018.26 1019.52 1019.11 1018.18 1017.16 1016.45 1016.12 1015.49 1015.06 1014.73 1014.31 1014.03 1013.74 1012.96 1012.31 1011.64 1011.55 1011.40 1011.68 1012.47 1013.56 1014.01 1013.81 1013.79 1013.38 1013.72 1014.53 1015.60 1016.73 1017.88 1018.72 1018.84 1016.96 1016.11 1016.41 1016.86 1017.19 1017.71 1018.04 1018.51 1018.84
1022.45 1021.94 1020.31 1020.04 1021.50 1021.41 1021.05 1019.69 1018.57 1017.61 1017.35 1017.28 1016.80 1016.19 1016.08 1015.51 1014.82 1014.33 1013.72 1012.97 1012.80 1012.63 1012.66 1012.83 1014.04 1014.37 1014.15 1013.82 1013.72 1014.23 1014.69 1015.48 1016.15 1017.56 1017.70 1016.81 1016.35 1016.12 1016.32 1016.46 1016.83 1017.14 1017.41 1017.86 1018.30
1024.19 1025.22 1025.09 1024.03 1023.21 1023.11 1022.43 1021.42 1020.49 1019.84 1019.05 1018.70 1018.43 1018.86 1018.76 1017.95 1016.94 1016.25 1015.80 1015.13 1014.08 1013.91 1013.83 1014.20 1014.67 1014.77 1014.15 1013.71 1013.61 1013.61 1013.86 1014.78 1015.50 1015.42 1015.96 1015.14 1015.32 1015.27 1015.16 1015.44 1015.55 1016.17 1017.05 1017.53 1017.95
1026.54 1026.93 1026.17 1025.56 1024.90 1024.06 1023.35 1023.15 1022.51 1021.91 1021.40 1020.47 1020.44 1020.31 1019.95 1019.73 1019.39 1018.90 1018.19 1017.36 1016.37 1015.43 1015.37 1015.56 1015.33 1015.13 1014.70 1014.04 1013.84 1013.54 1013.11 1013.54 1013.93 1014.23 1014.35 1014.40 1014.33 1014.12 1014.10 1014.65 1015.24 1015.50 1016.32 1016.80 1017.28
1027.62 1027.70 1027.50 1026.60 1025.91 1025.29 1024.94 1024.58 1023.82 1023.51 1022.29 1021.81 1021.86 1021.29 1020.68 1020.34 1020.12 1019.59 1018.93 1018.33 1017.52 1017.20 1016.76 1016.55 1016.35 1016.34 1015.46 1014.59 1014.16 1013.40 1012.52 1012.69 1012.88 1012.89 1013.32 1013.72 1013.35 1013.78 1014.24 1014.54 1014.57 1014.98 1015.55 1016.01 1016.55
Wind_Speed
16 15 14 12 11 11 10 9 9 8 8 9 9 7 7 8 9 2 6 10 5 6 5 5 3 2 3 3 3 3 6 1 3 2 3 4 9 6 4 2 1 3 5 3 16
17 16 14 13 12 10 10 9 9 9 9 9 8 7 6 5 2 6 10 7 7 6 4 4 3 3 4 2 2 6 4 10 4 2 3 4 3 4 5 1 3 2 5 14 16
19 17 15 13 12 10 10 9 9 9 9 8 8 6 5 2 2 6 5 9 8 5 4 3 4 3 3 2 1 2 5 5 4 7 5 4 5 4 2 3 7 6 12 13 14
19 18 16 14 13 11 9 8 8 8 8 8 7 5 4 2 1 1 2 10 10 5 3 3 5 4 3 2 1 1 3 4 5 3 3 4 2 2 6 8 3 5 16 14 14
20 19 17 15 13 11 8 7 7 7 7 7 6 4 3 1 7 5 14 13 8 6 6 4 4 4 3 1 0 2 3 4 8 8 6 4 5 3 8 10 2 10 13 13 13
19 19 19 17 14 12 8 6 5 6 6 5 4 2 1 2 2 5 10 7 6 5 3 5 6 4 3 2 2 5 3 6 6 5 2 1 4 1 4 3 4 10 13 13 15
19 19 18 17 15 13 9 7 5 4 4 4 4 2 1 9 2 5 6 5 7 5 5 3 4 2 3 3 3 2 4 6 2 2 2 2 7 2 5 3 7 8 8 13 13
20 19 19 18 16 14 11 8 4 3 4 5 4 2 6 2 2 5 2 4 4 2 1 4 4 3 2 1 7 4 5 4 4 6 2 4 6 3 6 2 8 8 5 5 9
21 20 19 19 16 14 9 8 5 6 4 5 1 0 8 2 2 5 4 3 6 3 2 3 2 3 4 4 6 8 1 3 8 3 1 4 6 6 12 10 8 10 6 8 7
23 21 20 18 16 11 9 2 6 6 2 3 3 3 4 2 3 4 4 3 3 5 2 3 6 4 4 6 2 2 3 4 5 3 7 3 6 7 8 8 9 12 9 6 7
25 22 21 19 15 11 2 4 4 3 1 7 5 3 4 4 5 2 5 5 1 6 3 1 4 4 6 6 4 2 2 3 6 5 1 3 1 8 11 14 17 13 9 9 6
27 26 23 20 17 1 3 3 1 3 8 10 6 5 4 2 4 3 6 5 4 4 2 6 4 8 3 3 3 3 2 7 8 3 4 5 3 5 9 7 10 11 10 8 7
27 27 24 19 12 2 3 1 2 4 2 8 5 5 5 9 7 6 10 5 4 5 5 7 6 6 5 4 3 4 4 5 8 7 2 1 3 4 2 5 12 13 10 12 11
29 26 23 20 2 2 1 4 5 4 5 7 4 7 5 7 4 7 8 8 3 11 8 5 5 6 4 4 8 4 8 7 5 4 3 2 5 2 5 6 10 13 14 14 14
31 27 21 7 1 2 4 7 2 6 4 2 2 2 4 9 5 5 4 5 9 7 7 9 6 5 3 7 6 10 2 4 3 4 3 1 5 5 4 5 7 10 11 11 11
32 27 16 1 1 4 8 6 5 7 5 3 4 5 4 4 2 4 4 5 4 5 2 7 2 5 8 4 7 2 2 6 5 4 1 3 5 5 3 3 4 5 7 9 9
33 26 5 2 3 7 5 5 6 4 6 5 3 2 5 5 3 4 6 6 7 5 5 3 6 3 4 2 2 5 6 3 5 3 6 3 3 6 4 2 2 0 3 5 5
35 16 3 2 6 5 4 7 2 3 4 4 5 6 5 2 2 3 5 4 3 4 4 6 6 7 4 8 9 6 9 7 6 4 5 2 5 4 4 5 4 3 0 1 3
25 4 3 7 7 2 8 4 5 1 5 7 8 2 1 2 2 2 1 3 2 7 9 6 7 4 2 3 6 5 3 3 8 4 3 4 3 4 4 6 6 6 4 4 5
4 4 3 13 6 6 6 5 3 1 5 3 2 2 2 4 2 3 2 1 3 2 4 2 2 2 4 4 6 4 5 4 3 3 4 4 3 6 11 12 9 9 9 7 6
5 5 4 14 3 7 3 4 4 3 5 3 3 3 3 2 1 2 2 2 0 1 4 4 4 5 0 4 9 3 2 6 5 4 6 3 7 7 12 13 15 14 12 11 8
4 4 6 8 6 2 2 5 6 5 4 4 3 2 2 2 2 4 7 6 1 1 2 1 5 5 9 3 2 1 6 7 7 5 1 2 9 3 6 9 11 10 10 10 7
3 4 5 5 4 4 6 5 3 8 6 6 4 5 3 3 3 4 2 3 8 2 4 4 0 1 8 7 3 3 4 5 6 4 7 6 7 1 4 5 7 7 7 8 8
4 6 6 7 3 3 5 4 6 6 0 5 5 7 7 4 3 4 2 4 8 7 4 4 5 8 9 7 5 3 4 5 6 5 6 8 4 5 8 10 9 9 8 8 8
5 1 2 6 4 4 2 4 5 7 5 8 3 8 5 5 5 3 6 8 6 8 4 3 8 6 7 9 6 7 7 10 9 7 9 6 12 9 12 14 14 10 6 7 8
4 5 5 3 4 5 5 5 6 5 4 5 5 13 6 4 1 6 7 3 6 5 5 5 4 5 5 7 8 10 8 12 11 4 7 5 7 8 6 5 6 12 13 14 11
2 2 3 4 5 3 3 7 7 6 6 3 11 7 6 5 12 12 13 10 10 6 4 2 1 2 6 5 2 10 10 10 7 6 8 10 11 5 6 8 9 10 14 14 12
Wind_Direction
352 345 338 330 322 314 311 307 300 295 290 288 289 295 301 307 301 188 240 219 182 146 142 116 69 59 50 70 59 118 64 157 247 216 243 332 15 308 288 67 25 121 169 166 131
354 349 342 334 325 316 307 299 293 289 283 280 282 287 295 309 278 246 246 201 194 165 97 105 114 98 48 47 39 87 102 214 226 256 285 263 178 291 355 11 278 41 53 126 136
356 353 348 341 331 318 305 294 286 281 278 274 272 274 282 295 283 247 183 187 167 169 87 98 113 87 70 21 87 168 173 206 270 239 254 268 311 223 170 262 235 198 153 150 156
354 354 351 347 340 329 310 291 282 276 270 268 266 271 281 220 111 120 273 155 146 114 83 87 48 59 75 65 163 49 221 199 266 257 293 280 231 176 184 242 304 175 162 156 170
352 352 350 349 347 340 321 290 274 268 261 258 258 263 264 317 255 23 119 121 108 123 136 120 89 125 111 200 28 176 268 192 278 293 253 311 266 201 236 259 12 136 160 178 188
350 348 347 348 347 344 329 302 277 264 254 244 240 227 239 298 15 106 124 115 117 106 140 152 167 186 119 223 162 203 241 278 281 294 245 289 326 135 326 239 168 159 185 183 192
347 345 343 345 344 345 340 327 298 261 236 216 207 237 117 234 11 133 132 144 156 140 150 206 146 116 173 349 287 289 319 335 1 358 337 196 346 239 291 298 252 219 194 189 201
346 344 342 342 342 344 343 336 308 207 183 181 193 267 244 277 103 139 161 111 121 180 115 156 171 110 125 281 10 30 53 42 297 337 343 93 288 303 348 289 307 288 197 225 218
346 343 341 341 340 338 335 327 97 130 145 162 216 211 274 150 219 197 155 134 140 147 256 155 96 83 28 70 16 9 29 348 326 16 68 53 283 53 3 18 356 338 247 211 222
344 342 340 337 336 332 323 182 117 113 181 223 258 355 276 238 194 166 158 131 140 128 75 81 50 70 42 65 250 322 351 321 277 278 19 350 271 349 9 8 11 357 352 241 230
340 341 339 335 333 319 129 95 10 2 176 210 197 227 282 282 123 155 145 110 84 67 133 43 79 201 227 186 157 156 198 266 269 239 230 270 271 13 331 19 10 2 3 14 335
340 338 338 334 333 352 157 96 52 214 301 236 236 258 268 66 350 128 132 133 132 181 97 23 268 226 150 140 168 187 266 278 282 294 151 263 173 150 24 24 11 12 21 18 23
340 336 336 332 335 161 159 132 330 165 316 294 190 203 196 139 212 232 144 128 146 145 178 166 223 110 150 168 185 199 191 248 216 347 272 92 335 10 31 53 9 17 16 30 43
340 337 336 328 110 251 200 329 315 154 46 277 265 262 137 150 239 184 170 140 189 196 155 215 254 226 188 234 151 273 210 237 244 110 229 110 263 286 327 358 28 10 19 17 21
339 338 336 325 170 80 304 323 295 58 1 242 201 111 152 162 163 199 191 78 175 181 126 240 190 175 158 216 150 224 262 206 236 178 113 300 102 261 358 333 14 17 19 18 26
337 338 338 47 8 278 321 318 50 46 261 345 132 159 145 240 238 122 135 76 138 119 328 231 248 162 212 239 170 237 96 43 53 94 114 199 139 273 262 259 318 13 26 24 32
335 335 342 340 308 321 318 48 40 147 319 331 346 358 204 200 224 168 156 175 175 126 226 302 241 252 170 248 77 92 67 327 337 0 224 126 108 234 196 193 244 291 45 43 29
331 328 277 185 285 325 49 52 179 281 316 344 350 313 192 11 39 331 136 198 213 100 122 177 302 179 191 183 190 179 158 163 227 209 252 309 232 244 193 138 129 161 221 66 73
327 343 19 333 333 53 67 82 212 325 297 322 327 315 332 358 132 57 80 201 187 172 185 171 256 276 170 140 133 184 176 157 102 20 60 247 300 277 179 206 198 199 193 196 170
2 345 320 330 345 58 74 229 219 332 319 328 289 29 313 323 9 49 216 228 160 134 159 217 280 215 155 106 40 133 150 87 14 185 252 273 259 234 210 212 207 202 197 205 205
28 25 281 339 54 47 133 251 305 354 20 339 300 282 242 236 216 236 256 291 122 77 119 128 125 281 185 196 172 129 120 55 115 135 190 233 250 221 204 186 198 209 195 198 210
7 2 320 344 47 35 48 316 294 336 350 335 334 352 298 316 256 230 215 221 293 188 202 137 151 202 209 288 284 142 169 147 132 221 192 160 267 310 204 187 185 203 195 198 199
10 284 327 28 65 357 324 314 301 3 5 349 309 29 348 287 284 235 260 327 18 131 173 180 292 24 342 354 347 219 172 112 104 84 188 156 260 179 181 206 224 213 199 196 196
30 356 337 32 33 54 1 294 320 6 141 348 322 36 1 327 223 272 290 3 333 3 30 130 175 169 194 205 159 184 198 161 131 132 186 215 238 249 219 216 214 218 203 198 190
21 40 152 327 354 354 309 316 337 353 348 8 83 39 348 288 316 308 11 338 341 1 21 121 221 195 233 227 202 215 187 173 190 196 190 225 220 192 219 215 220 210 187 197 194
47 16 351 301 309 343 352 24 21 349 326 339 32 337 331 283 78 301 7 291 261 332 19 355 265 180 263 229 221 245 217 193 207 195 260 270 264 218 232 197 195 197 187 204 195
339 357 89 317 349 7 28 353 347 355 284 337 346 317 302 336 316 278 256 243 253 287 302 276 131 85 258 227 211 277 209 200 202 191 190 222 238 174 230 221 227 194 194 196 186